Location: Del Amo
(33.8464°N, 118.2104°W)
Time: 07:16:59
(UTC+00:00)

Vanguard 3 - Pass Details

Date: 20 September 2024
Orbit: 507 x 3223 km, 33.3° (Epoch: 09 October)

Event Time Altitude Azimuth Distance (km) Brightness Sun altitude
Rises 20:56:55 0° 283° (WNW) 6,823 12.0 52.9°
Reaches altitude 10° 21:03:32 10° 270° (W) 5,405 11.8 52.1°
Maximum altitude 21:13:10 20° 231° (SW) 3,803 11.7 51.0°
Drops below altitude 10° 21:20:18 10° 188° (S) 3,828 11.3 50.1°
Sets 21:23:57 0° 172° (S) 4,380 11.3 49.6°
